sat.trackr.live / text

‹ back to catalog

LAGEOS 2

NORAD 22195 · 1992-070B

PAYLOAD ACTIVE UNKNOWN

§ Identity

Operator
Country
IT
Launch date
1992-10-22
Launch site
AFETR
Launch vehicle
Mass (kg)
RCS (m²)
0.40

Purposes: science

External: N2YO · Heavens-Above · Gunter

§ Orbital elements

Epoch: 2026-08-21T09:32:35.937888Z

Period
222.46 min
Inclination
52.6389°
Eccentricity
0.0138023
Mean motion
6.47294115 rev/d
Perigee alt
5,615.9 km
Apogee alt
5,951.6 km
Semi-major
12,161.9 km
B*
0.0000e+0
RAAN
225.4441°
Arg perigee
215.8907°
Mean anomaly
299.2302°
Rev number
79,964

§ Raw data

LAGEOS 21 22195U 92070B   26233.39763817 -.00000009  00000+0  00000+0 0  99952 22195  52.6389 225.4441 0138023 215.8907 299.2302  6.47294115799646

JSON: /api/v1/satellites/22195 · /tle

For live sub-satellite position, see the globe view (requires WebGL).

§ Visibility from observer

Set your observer location to see the next 7 days of passes ≥ 10°. The values pass through the URL so the page stays shareable.

No JS? Fill the form by hand. The geolocation button needs JavaScript.